VA3PPY Weather Reports


time (UTC)temp
F
wind
direction
speed
knots
gust
knots
rain 1hr
in
rain 24hr
in
rain mn
in
humidity
%
barometer
mb
20260507080009 38 78 0.0 1.7 0.00 0.00 0.00 71 1011.8
20260507074523 39 78 0.9 2.6 0.00 0.00 0.00 72 1011.8
20260507073010 40 78 1.7 4.3 0.00 0.00 0.00 71 1011.9
20260507071510 40 78 0.9 3.5 0.00 0.00 0.00 71 1011.9
20260507070013 40 78 1.7 3.5 0.00 0.00 0.00 70 1012.2
20260507064510 41 61 1.7 5.2 0.00 0.00 0.00 73 1012.5
20260507063010 41 360 0.9 3.5 0.00 0.00 0.00 74 1012.5
20260507061512 42 360 1.7 5.2 0.00 0.00 0.00 74 1012.4
20260507060010 42 12 1.7 5.2 0.00 0.00 0.00 75 1012.5
20260507054510 43 27 1.7 7.8 0.00 0.00 0.00 75 1012.5
20260507053010 42 17 1.7 5.2 0.00 0.00 0.00 76 1012.5
20260507051510 42 347 1.7 4.3 0.00 0.00 0.00 76 1012.6
20260507050010 42 351 1.7 7.0 0.00 0.00 0.00 80 1012.7
20260507044511 42 319 0.9 6.1 0.00 0.00 0.00 82 1012.6
20260507043010 41 340 0.9 4.3 0.00 0.00 0.00 85 1012.7
20260507041512 41 311 1.7 4.3 0.00 0.00 0.00 85 1012.5
20260507040010 42 330 0.0 4.3 0.00 0.00 0.00 83 1012.5
20260507034510 42 330 0.0 0.0 0.00 0.00 0.00 81 1012.4
20260507033011 42 330 0.0 0.0 0.00 0.00 0.00 81 1012.4
20260507031512 41 330 0.0 0.0 0.00 0.00 0.00 79 1012.3
20260507030017 41 330 0.0 0.0 0.00 0.00 0.00 81 1012.5
20260507024518 41 330 0.0 0.0 0.00 0.00 0.00 78 1012.3
20260507023011 42 330 0.0 0.0 0.00 0.00 0.00 78 1012.3
20260507021511 42 330 0.0 0.0 0.00 0.00 0.00 79 1012.2
20260507020012 42 330 0.0 0.0 0.00 0.00 0.00 78 1012.2
20260507014517 42 330 0.0 0.0 0.00 0.00 0.00 78 1012.4
20260507013011 42 330 0.0 0.0 0.00 0.00 0.00 78 1012.3
20260507011525 42 330 0.0 0.0 0.00 0.00 0.00 78 1012.3
20260507010017 42 330 0.0 0.9 0.00 0.00 0.00 77 1012.4
20260507004511 42 330 0.0 0.0 0.00 0.00 0.00 78 1012.4
20260507003016 42 330 0.0 0.0 0.00 0.00 0.00 77 1012.4
20260507001511 42 330 0.0 1.7 0.00 0.00 0.00 76 1012.3
20260507000011 42 330 0.0 0.0 0.00 0.00 0.00 75 1012.1
20260506234512 42 330 0.0 1.7 0.00 0.01 0.00 76 1012.0
20260506233012 42 330 0.0 1.7 0.00 0.01 0.00 74 1012.2
20260506231512 43 330 0.0 2.6 0.00 0.01 0.00 72 1012.2
20260506230015 43 330 0.0 2.6 0.00 0.01 0.00 70 1012.3
20260506224514 44 330 1.7 4.3 0.00 0.01 0.00 69 1012.5
20260506223012 44 314 1.7 7.0 0.00 0.01 0.00 64 1012.4
20260506221512 45 359 0.9 6.1 0.00 0.01 0.00 67 1012.4
20260506220012 45 360 0.0 4.3 0.00 0.01 0.00 65 1012.5
20260506214518 44 345 0.9 7.0 0.00 0.01 0.00 64 1012.3
20260506213012 45 29 4.3 7.8 0.00 0.01 0.00 66 1012.4
20260506211512 44 330 2.6 7.8 0.00 0.01 0.00 65 1012.0
20260506210014 46 358 0.9 7.0 0.00 0.01 0.00 69 1012.3
20260506204514 43 26 3.5 7.0 0.00 0.01 0.00 68 1012.2
20260506203014 44 2 2.6 7.0 0.00 0.01 0.00 68 1012.2
20260506201518 44 56 1.7 5.2 0.00 0.01 0.00 69 1012.3
20260506200015 44 22 1.7 5.2 0.00 0.01 0.00 68 1012.5
20260506194513 43 4 2.6 8.7 0.00 0.01 0.00 71 1012.6
20260506193013 43 358 0.9 5.2 0.00 0.01 0.00 74 1012.5
20260506191513 40 359 1.7 7.0 0.00 0.01 0.00 72 1012.6
20260506190012 41 3 3.5 7.8 0.00 0.01 0.00 71 1012.8
20260506184521 42 323 3.5 7.0 0.00 0.01 0.00 72 1013.0
20260506183014 42 1 2.6 8.7 0.00 0.01 0.00 72 1013.3
20260506181513 40 314 3.5 9.6 0.00 0.01 0.00 74 1013.2
20260506180013 40 330 3.5 7.8 0.00 0.01 0.00 75 1013.0
20260506174513 40 351 2.6 7.8 0.00 0.01 0.00 74 1012.8
20260506173013 40 290 3.5 8.7 0.00 0.01 0.00 74 1013.0
20260506171513 41 315 2.6 8.7 0.00 0.01 0.00 74 1013.0
20260506170014 42 323 2.6 7.8 0.00 0.01 0.00 73 1013.0
20260506164514 43 281 2.6 7.8 0.00 0.01 0.00 73 1012.8
20260506163014 42 296 1.7 9.6 0.00 0.01 0.00 75 1012.8
20260506161514 42 328 2.6 7.8 0.00 0.01 0.00 76 1012.7
20260506160015 41 311 3.5 12.2 0.00 0.01 0.00 77 1012.6
20260506154513 41 241 1.7 9.6 0.00 0.01 0.00 78 1012.5
20260506153013 41 356 3.5 9.6 0.00 0.01 0.00 77 1012.4
20260506151514 42 297 3.5 10.4 0.00 0.01 0.00 77 1011.9
20260506150014 42 315 4.3 8.7 0.00 0.01 0.00 75 1011.8
20260506144527 42 288 2.6 10.4 0.00 0.01 0.00 76 1011.4
20260506143014 42 311 5.2 14.8 0.00 0.01 0.00 76 1011.1
20260506141514 42 342 4.3 13.0 0.00 0.01 0.00 77 1010.7
20260506140014 42 290 5.2 13.0 0.00 0.01 0.00 78 1010.6
20260506134514 41 309 4.3 11.3 0.00 0.01 0.00 78 1010.4
20260506133014 41 307 3.5 13.9 0.00 0.01 0.00 79 1010.3
20260506131514 41 305 3.5 11.3 0.00 0.01 0.00 79 1010.2
20260506130014 40 300 4.3 10.4 0.00 0.01 0.00 78 1010.1
20260506124514 40 296 3.5 13.9 0.00 0.01 0.00 80 1009.9
20260506123019 40 290 3.5 12.2 0.00 0.01 0.00 82 1009.7
20260506121515 39 283 5.2 13.0 0.00 0.01 0.00 82 1009.6
20260506120024 40 359 4.3 13.0 0.00 0.01 0.00 84 1009.5
20260506114519 40 328 3.5 9.6 0.00 0.01 0.00 86 1009.1
20260506113015 40 348 1.7 9.6 0.00 0.01 0.00 87 1008.8
20260506111514 40 329 2.6 9.6 0.00 0.01 0.00 88 1008.6
20260506110015 39 360 4.3 9.6 0.00 0.01 0.00 88 1008.1
20260506104523 39 307 4.3 9.6 0.00 0.01 0.00 88 1007.5
20260506103016 39 6 2.6 8.7 0.00 0.01 0.00 88 1007.3
20260506101515 39 317 3.5 9.6 0.00 0.01 0.00 88 1007.5
20260506100019 39 321 3.5 8.7 0.00 0.01 0.00 88 1007.3
20260506094515 40 335 3.5 10.4 0.00 0.01 0.00 87 1007.4
20260506093020 40 300 1.7 8.7 0.00 0.01 0.00 87 1007.2
20260506091515 40 292 3.5 9.6 0.00 0.01 0.00 86 1007.1
20260506090015 40 304 3.5 10.4 0.00 0.01 0.00 87 1007.1
20260506084515 41 316 2.6 7.8 0.00 0.01 0.00 88 1007.2
20260506083021 41 289 0.9 7.8 0.00 0.01 0.00 89 1007.2
20260506081517 41 240 0.0 2.6 0.00 0.01 0.00 89 1006.9